Date,TemperatureHighF,TemperatureAvgF,TemperatureLowF,DewpointHighF,DewpointAvgF,DewpointLowF,HumidityHigh,HumidityAvg,HumidityLow,PressureMaxIn,PressureMinIn,WindSpeedMaxMPH,WindSpeedAvgMPH,GustSpeedMaxMPH,PrecipitationSumIn
2013-1-1,47,42,38,34,31,0,73,66,58,29.98,29.84,54,1,54,0.00
2013-1-2,43,34,28,26,20,-26,63,56,33,30.20,29.95,10,1,10,0.00
2013-1-3,39,31,23,24,19,4,72,62,49,30.22,30.11,8,1,8,0.00
2013-1-4,42,36,32,27,24,22,72,63,52,30.16,30.03,14,2,14,0.00
2013-1-5,47,36,30,29,24,21,74,63,47,30.35,30.08,11,1,11,0.00
2013-1-6,51,37,32,39,29,9,85,75,58,30.23,30.01,7,0,7,0.00
2013-1-7,52,40,27,35,28,21,77,64,47,30.42,30.06,12,1,12,0.00
2013-1-8,54,38,25,39,30,20,87,73,55,30.44,30.35,8,0,8,0.00
2013-1-9,59,52,41,45,42,34,82,69,58,30.37,30.16,10,1,10,0.00
2013-1-10,56,45,34,37,32,11,76,62,44,30.52,30.29,11,1,11,0.00
2013-1-11,52,42,31,50,37,6,90,81,69,30.49,30.03,8,1,8,0.12
2013-1-12,56,48,45,50,44,41,88,87,80,30.13,30.03,8,1,8,0.00
2013-1-13,56,53,46,50,50,24,90,90,80,30.12,29.98,5,0,5,0.00
2013-1-14,54,51,46,50,46,42,90,81,73,30.22,29.98,6,0,6,0.08
2013-1-15,46,40,36,42,36,33,89,87,84,30.25,30.11,11,1,11,0.61
2013-1-16,44,40,36,41,37,33,91,90,88,30.13,29.81,9,1,9,0.43
2013-1-17,44,42,37,41,38,33,89,85,76,30.09,29.93,57,0,57,0.08
2013-1-18,42,35,25,34,26,11,87,70,33,30.51,29.99,12,1,12,0.18
2013-1-19,54,40,25,34,28,16,78,64,41,30.45,29.98,13,1,13,0.00
2013-1-20,60,46,37,41,31,15,73,56,38,30.06,29.76,14,3,14,0.00
2013-1-21,48,36,27,24,20,13,76,52,36,30.12,29.75,8,1,15,0.00
2013-1-22,30,24,17,22,8,0,71,50,39,30.27,29.86,20,4,20,0.00
2013-1-23,30,20,13,9,3,-9,55,47,33,30.32,30.17,12,2,12,0.00
2013-1-24,31,22,18,8,4,-3,55,46,35,30.47,30.10,18,2,18,0.00
2013-1-25,29,22,15,15,8,2,74,56,44,30.48,30.06,7,0,7,0.18
2013-1-26,35,24,12,20,12,6,76,62,47,30.41,30.06,17,2,17,0.18
2013-1-27,44,26,0,23,14,0,72,61,42,30.57,30.41,12,1,12,0.00
2013-1-28,38,32,22,34,26,14,85,79,70,30.50,30.03,8,0,8,0.06
2013-1-29,59,45,36,51,39,32,87,82,69,30.13,30.02,6,0,8,0.00
2013-1-30,66,54,44,58,50,34,90,85,72,30.03,29.43,19,3,19,0.00
2013-1-31,52,44,32,35,25,14,58,47,42,29.88,29.49,22,6,25,0.00
2013-2-1,36,30,22,25,14,8,79,52,43,30.32,29.85,21,3,21,0.02
2013-2-2,36,27,15,22,14,4,76,58,47,30.37,30.03,8,1,14,0.00
2013-2-3,37,28,25,27,23,-21,83,79,67,30.04,29.87,7,0,14,0.00
2013-2-4,35,30,29,21,19,17,68,62,50,30.00,29.93,4,0,4,0.00
2013-2-5,44,36,30,33,28,21,83,73,55,29.94,29.85,9,0,9,0.00
2013-2-6,48,37,28,31,27,20,86,69,48,30.31,29.89,18,2,18,0.00
2013-2-7,40,36,27,33,24,18,76,62,48,30.47,30.21,14,3,14,0.00
2013-2-8,46,41,35,43,38,32,90,87,75,30.21,29.54,15,4,15,1.14
2013-2-9,39,32,28,32,25,-27,87,74,56,30.09,29.74,27,7,27,0.00
2013-2-14,50,48,45,37,36,34,66,64,61,29.98,29.96,6,1,12,0.00
2013-2-17,26,26,26,7,7,7,44,44,44,19.30,19.30,0,0,0,0.00
2013-2-18,32,28,0,32,10,0,100,48,44,30.23,29.97,0,0,0,42.34
2013-2-19,51,42,30,44,34,17,87,72,59,30.22,29.69,15,1,15,0.10
2013-2-20,42,37,31,32,22,13,73,55,42,30.02,29.78,23,5,23,0.00
2013-2-21,41,35,25,20,17,11,57,47,40,30.27,30.02,20,4,20,0.00
2013-2-22,32,29,26,21,18,16,64,63,57,30.38,30.27,7,1,7,0.00
2013-2-25,51,48,44,32,30,28,55,50,48,30.15,30.13,11,2,11,0.00
2013-2-26,48,40,28,45,35,22,89,81,71,30.23,29.65,22,6,22,0.86
2013-2-27,59,51,46,50,44,38,88,77,60,29.67,29.52,14,2,14,0.27
2013-2-28,50,42,38,40,34,30,87,72,59,29.67,29.57,10,2,10,43.63
2013-3-1,48,42,36,34,31,29,76,65,53,29.78,29.64,12,2,14,0.10
2013-3-2,50,44,37,32,29,20,66,56,49,29.80,29.75,12,2,12,0.10
2013-3-3,35,35,34,19,19,19,53,53,53,29.94,29.93,11,5,11,0.00
2013-3-4,48,39,32,26,22,19,58,49,41,29.96,29.82,18,4,18,43.63
2013-3-5,51,40,31,32,27,19,80,60,47,30.02,29.89,6,0,6,0.00
2013-3-6,41,38,35,37,35,30,88,87,80,29.90,29.53,20,7,20,0.45
2013-3-7,48,44,37,35,32,31,88,63,52,30.03,29.72,13,4,13,0.45
2013-3-8,42,36,35,32,31,30,82,79,65,30.04,30.03,16,5,16,0.45
2013-3-11,35,34,33,31,30,28,85,85,83,30.28,30.25,0,0,0,0.00
2013-3-12,57,53,34,54,48,30,88,85,75,30.25,29.69,15,4,15,0.00
2013-3-13,58,49,38,38,34,29,76,56,44,29.92,29.85,21,1,21,0.00
2013-3-14,49,43,35,29,21,18,66,42,36,29.98,21.14,17,4,17,0.00
2013-3-15,55,48,38,32,30,19,64,50,40,29.96,29.77,14,2,14,0.00
2013-3-16,44,41,35,33,29,27,74,64,54,29.82,29.75,13,4,13,0.00
2013-3-17,45,42,35,30,26,22,58,54,51,30.27,29.75,6,1,6,0.00
2013-3-18,47,40,34,43,33,20,88,77,55,30.31,29.83,18,5,18,0.00
2013-3-19,56,48,41,44,40,27,87,76,51,29.85,29.70,10,2,10,0.00
2013-3-20,41,38,36,27,25,24,60,59,57,29.93,29.85,4,1,4,0.00
2013-5-25,-22,-22,-22,0,0,0,0,0,100,29.57,29.57,0,0,0,0.00
2013-5-26,-22,-22,-22,0,0,0,0,0,100,29.57,29.57,0,0,0,0.00
2013-5-27,-22,-22,-22,0,0,0,0,0,100,29.57,29.57,0,0,0,0.00
2013-5-28,-22,-22,-22,0,0,0,0,0,100,29.57,29.57,0,0,0,0.00
2013-5-29,-22,-22,-22,0,0,0,0,0,100,29.57,29.57,0,0,0,0.00
2013-5-31,99,85,-22,71,65,0,66,52,40,30.03,29.57,7,1,7,0.00
2013-6-1,98,83,70,74,68,-7,80,63,45,30.03,29.91,13,2,13,0.00
2013-6-2,96,81,70,72,67,-6,80,64,46,29.92,29.80,15,2,15,0.00
2013-6-3,82,74,69,72,67,-17,83,80,70,29.85,29.75,61,0,61,0.00
2013-6-4,88,73,60,64,55,-4,83,56,32,30.08,29.83,9,0,9,0.00
2013-6-5,86,69,52,57,53,46,83,59,36,30.17,30.06,0,0,0,0.00
2013-6-6,80,67,54,65,58,40,84,72,32,30.10,29.91,13,2,13,0.00
2013-6-7,73,69,65,67,63,60,83,81,77,29.91,29.46,12,1,12,0.00
2013-6-8,76,69,64,70,63,-5,83,81,78,29.90,29.46,14,2,14,0.00
2013-6-9,74,74,74,67,67,67,80,80,80,29.90,29.90,0,0,0,0.00
2013-6-10,82,75,71,74,68,65,83,80,73,30.00,29.78,11,2,11,89.59
2013-6-11,91,79,70,73,68,62,83,70,49,29.78,29.67,13,2,13,0.00
2013-6-12,93,80,70,72,66,59,81,63,44,29.81,29.74,10,2,10,0.00
2013-6-13,70,69,67,59,59,58,74,71,69,29.81,29.74,7,0,7,0.00
2013-6-17,76,74,73,65,64,63,72,70,66,29.90,29.87,5,0,5,89.64
2013-6-18,87,75,64,75,67,59,83,76,65,29.89,29.74,9,0,9,0.00
2013-6-19,81,70,59,65,58,52,83,69,43,30.14,29.80,3,0,3,0.00
2013-6-20,89,72,53,66,55,-24,84,58,33,30.27,30.14,6,0,6,0.00
2013-6-21,87,72,54,65,56,36,83,59,35,30.29,30.23,8,0,8,0.00
2013-6-22,77,60,55,67,53,49,83,79,57,30.24,30.14,0,0,0,0.00
2013-6-23,93,77,62,75,66,54,81,71,53,30.19,30.03,14,1,14,0.00
2013-6-24,100,85,74,78,72,67,82,67,42,30.08,29.95,11,1,11,0.00
2013-6-25,99,86,74,76,72,67,82,64,44,29.99,29.83,10,1,10,0.00
2013-6-26,101,86,74,76,70,65,80,60,39,29.86,29.75,10,1,10,0.00
2013-6-27,95,82,72,77,71,47,82,71,51,29.79,29.56,9,1,9,0.00
2013-6-28,98,84,75,75,71,66,82,67,46,29.59,29.46,8,1,8,0.00
2013-6-29,95,81,72,75,70,56,82,69,52,29.69,29.46,8,0,8,0.00
2013-6-30,88,78,72,76,71,66,82,77,64,29.85,29.68,6,0,6,0.00
2013-7-1,86,77,74,76,71,68,82,80,72,30.00,29.84,8,1,8,0.00
2013-7-2,92,80,73,78,71,51,82,76,60,30.17,30.00,10,1,10,0.00
2013-7-3,94,82,70,79,72,64,83,73,58,30.22,30.15,9,1,9,0.00
2013-7-4,98,85,74,77,72,68,82,67,47,30.24,30.17,0,0,0,0.00
2013-7-5,98,86,72,77,72,66,82,65,46,30.21,30.10,1,0,1,0.00
2013-7-6,102,89,78,79,74,70,81,63,45,30.14,30.03,0,0,0,0.00
2013-7-7,100,88,79,78,74,69,79,64,47,30.08,29.94,0,0,0,0.00
2013-7-8,96,84,74,74,70,49,81,64,47,30.06,29.98,57,0,57,0.00
2013-7-9,82,73,72,76,67,66,82,81,78,30.05,30.02,0,0,0,0.00
2013-7-13,96,80,69,78,69,61,81,71,56,30.24,29.98,0,0,0,0.00
2013-7-14,98,85,76,78,73,69,81,68,44,30.30,30.25,0,0,0,0.00
2013-7-19,100,90,85,76,75,74,73,61,46,29.86,29.82,0,0,0,0.00
2013-7-20,99,89,81,80,76,-26,80,67,50,29.88,29.74,0,0,0,0.00
2013-7-21,103,86,73,80,72,67,81,66,39,29.92,29.83,0,0,0,0.00
2013-7-22,98,83,73,78,72,67,81,71,50,29.89,29.75,0,0,0,0.00
2013-7-23,98,86,76,79,74,61,81,68,49,29.75,29.56,0,0,0,0.00
2013-7-24,103,87,73,78,71,62,81,61,38,29.85,29.62,0,0,0,0.00
2013-7-25,81,71,66,65,60,55,77,67,57,29.98,29.83,0,0,0,0.00
2013-7-26,95,78,65,68,63,58,80,61,39,30.03,29.94,0,0,0,0.00
2013-7-27,93,77,64,72,64,58,82,66,40,30.03,29.91,0,0,0,0.00
2013-7-28,88,77,65,74,68,56,82,74,38,29.94,29.87,0,0,0,0.00
2013-7-29,95,80,67,73,65,56,82,63,35,30.09,29.91,0,0,0,0.00
2013-7-30,94,76,59,66,59,53,82,58,35,30.15,30.08,0,0,0,0.00
2013-7-31,93,76,60,70,62,-25,82,63,41,30.12,30.01,0,0,0,0.00
2013-8-1,83,72,66,71,65,57,81,78,64,30.01,29.78,0,0,0,0.00
2013-8-2,95,81,66,75,66,60,81,63,40,29.92,29.77,0,0,0,0.00
2013-8-3,90,76,68,71,66,62,81,70,49,29.92,29.86,0,0,0,0.00
2013-8-4,94,78,65,69,61,54,82,59,34,29.94,29.82,0,0,0,0.00
2013-8-5,92,75,58,60,56,51,78,54,30,30.03,29.94,0,0,0,0.00
2013-8-6,82,70,59,68,61,-27,82,74,58,30.08,30.00,0,0,0,0.00
2013-8-7,81,74,67,71,66,46,81,77,66,30.09,30.02,0,0,0,0.00
2013-8-8,96,81,74,77,70,67,80,71,51,30.04,29.98,0,0,0,0.00
2013-8-9,97,84,-21,78,73,-26,80,71,54,29.99,29.80,0,0,0,0.00
2013-8-10,96,83,-21,76,68,-34,80,64,39,30.03,29.87,0,0,0,0.00
2013-8-11,91,77,-21,70,65,-34,81,68,47,30.08,29.99,0,0,0,0.00
2013-8-12,97,81,68,75,68,61,81,67,45,30.01,29.89,0,0,0,0.00
2013-8-13,86,77,73,77,69,66,80,76,55,29.89,29.68,0,0,0,0.00
2013-8-14,87,74,60,68,57,-1,80,58,36,30.03,29.71,0,0,0,0.00
2013-8-15,60,57,55,50,49,49,80,76,71,30.06,30.03,0,0,0,0.00
2013-9-3,88,78,66,78,69,60,99,76,46,29.89,29.71,0,0,0,0.00
2013-9-4,82,70,59,65,60,53,93,72,37,30.02,29.89,0,0,0,0.00
2013-9-5,84,74,63,67,63,50,89,68,51,30.10,29.96,0,0,0,0.00
2013-9-6,77,63,53,56,52,47,94,68,40,30.22,30.10,0,0,0,0.00
2013-9-7,80,65,48,61,54,47,98,73,36,30.13,29.92,0,0,0,0.00
2013-9-8,86,74,63,69,65,51,98,75,53,30.03,29.82,0,0,0,0.00
2013-9-9,75,66,54,64,58,49,95,75,58,30.20,30.03,0,0,0,0.00
2013-9-10,87,77,64,75,70,62,97,82,65,30.19,30.08,0,0,0,0.00
2013-9-11,94,80,70,76,72,69,97,78,53,30.14,30.01,0,0,0,0.00
2013-9-12,90,79,72,75,72,70,97,80,58,30.01,29.71,0,0,0,0.40
2013-9-13,79,71,58,72,65,54,98,83,48,29.85,29.65,0,0,0,0.00
2013-9-14,71,60,49,54,51,48,96,75,48,30.14,29.85,0,0,0,0.00
2013-9-15,75,60,43,59,51,42,99,74,43,30.23,30.10,0,0,0,0.00
2013-9-16,76,66,57,66,60,54,95,81,60,30.19,30.03,0,0,0,0.00
2013-9-17,66,57,45,54,47,42,94,70,48,30.39,30.19,0,0,0,0.00
2013-9-18,71,55,41,52,47,40,98,78,48,30.34,30.20,0,0,0,0.00
2013-9-19,76,60,44,59,51,43,98,77,38,30.20,30.08,0,0,0,0.00
2013-9-20,78,62,48,64,56,47,99,81,52,30.09,29.99,0,0,0,0.00
2013-9-21,80,67,51,69,61,50,99,84,48,30.01,29.68,0,0,0,0.08
2013-9-22,76,66,52,68,57,47,98,77,45,29.90,29.65,0,0,0,0.48
2013-9-23,69,56,45,51,46,43,95,73,45,30.04,29.89,0,0,0,0.00
2013-9-24,73,57,44,53,48,42,95,76,42,30.06,29.90,0,0,0,0.00
2013-9-25,76,59,47,60,53,46,97,82,50,29.94,29.86,0,0,0,0.00
2013-9-26,75,59,50,60,54,49,99,85,50,30.06,29.91,0,0,0,0.00
2013-9-27,71,61,51,59,54,50,99,81,55,30.23,30.06,0,0,0,0.00
2013-9-28,74,63,54,58,55,53,95,77,54,30.28,30.19,0,0,0,0.00
2013-9-29,73,60,51,60,52,48,98,78,43,30.19,30.04,0,0,0,0.00
2013-9-30,75,59,48,60,53,47,98,83,52,30.06,29.98,0,0,0,0.00
2013-10-1,81,64,50,65,58,49,99,83,55,30.03,29.92,0,0,0,0.00
2013-10-2,84,71,58,66,63,57,99,79,49,30.03,29.95,0,0,0,0.00
2013-10-3,80,70,60,67,64,59,99,84,56,30.10,30.02,0,0,0,0.00
2013-10-4,87,71,58,70,64,58,99,81,45,30.06,29.98,0,0,0,0.00
2013-10-5,86,71,64,72,67,63,99,88,63,30.06,30.01,0,0,0,0.00
2013-10-6,85,74,67,73,69,66,99,86,59,30.05,29.97,0,0,0,0.00
2013-10-7,81,71,61,72,67,60,97,90,73,30.01,29.81,0,0,0,0.78
2013-10-8,66,58,52,60,52,48,96,80,59,30.25,30.01,0,0,0,0.01
2013-10-9,65,59,54,56,53,49,94,81,70,30.27,30.16,0,0,0,0.09
2013-10-10,65,62,58,64,61,56,98,97,94,30.17,29.91,0,0,0,1.58
2013-10-11,67,64,63,66,64,62,99,98,97,29.97,29.87,0,0,0,1.79
2013-10-12,68,63,61,65,62,60,99,96,85,30.14,29.94,0,0,0,1.48
2013-10-13,71,63,57,62,59,54,98,87,67,30.30,30.13,0,0,0,0.13
2013-10-14,72,59,50,62,54,48,97,86,65,30.31,30.22,0,0,0,0.00
2013-10-15,76,60,48,61,53,47,98,80,47,30.23,30.06,0,0,0,0.00
2013-10-16,73,63,57,64,60,55,98,91,72,30.07,29.92,0,0,0,0.00
2013-10-17,75,67,61,67,63,60,98,90,71,29.92,29.73,0,0,0,0.00
2013-10-18,69,62,48,65,51,46,94,69,48,30.00,29.73,0,0,0,0.00
2013-10-19,64,55,42,62,51,41,98,88,59,30.00,29.78,0,0,0,0.05
2013-10-20,64,55,42,58,43,37,95,68,37,30.09,29.81,0,0,0,0.00
2013-10-21,68,52,38,55,44,37,99,78,39,30.16,29.98,0,0,0,0.00
2013-10-22,68,57,46,56,50,46,99,79,52,29.99,29.77,0,0,0,0.00
2013-10-23,53,49,44,50,45,39,97,87,66,29.82,29.60,0,0,0,0.39
2013-10-24,56,46,40,41,36,28,92,68,40,30.08,29.81,0,0,0,0.00
2013-10-25,57,46,38,38,36,33,92,69,47,30.28,30.07,0,0,0,0.00
2013-10-26,59,46,31,44,37,30,98,72,44,30.27,29.93,0,0,0,0.00
2013-10-27,61,52,37,43,38,34,94,62,37,30.15,29.91,0,0,0,0.00
2013-10-28,66,48,32,50,41,31,97,79,47,30.26,30.13,0,0,0,0.00
2013-10-29,65,52,43,52,46,41,97,83,62,30.34,30.25,0,0,0,0.00
2013-10-30,59,51,44,56,50,43,99,96,84,30.33,30.18,0,0,0,0.02
2013-10-31,72,61,49,64,58,48,100,89,70,30.20,29.85,0,0,0,0.02
2013-11-1,71,66,60,66,63,60,99,91,79,29.85,29.59,0,0,0,0.16
2013-11-2,72,62,54,62,54,45,99,77,42,29.81,29.59,0,0,0,0.01
2013-11-3,57,49,36,47,38,25,90,67,41,30.42,29.81,0,0,0,0.00
2013-11-4,50,40,32,35,29,22,85,64,49,30.60,30.42,0,0,0,0.00
2013-11-5,60,48,37,47,42,33,95,81,62,30.59,30.46,0,0,0,0.00
2013-11-6,65,53,35,60,48,35,99,86,59,30.47,30.08,0,0,0,0.00
2013-11-7,64,58,43,62,56,42,98,94,83,30.08,29.78,0,0,0,0.20
2013-11-8,53,45,37,42,32,27,87,61,40,30.27,29.98,0,0,0,0.00
2013-11-9,52,43,29,41,33,28,96,70,44,30.34,30.04,0,0,0,0.00
2013-11-10,65,52,44,45,38,28,88,61,32,30.14,29.88,0,0,0,0.00
2013-11-11,55,47,35,42,36,31,90,65,46,30.26,30.01,0,0,0,0.00
2013-11-12,51,42,31,44,30,17,88,64,44,30.32,29.95,0,0,0,0.00
2013-11-13,42,33,25,26,19,14,87,58,33,30.40,30.31,0,0,0,0.00
2013-11-14,36,35,32,29,27,26,77,73,69,30.35,30.31,0,0,0,0.00
2013-11-15,55,45,36,41,38,33,95,77,51,30.27,30.18,0,0,0,0.00
2013-11-16,53,48,38,50,46,36,97,94,89,30.33,30.23,0,0,0,0.36
2013-11-17,66,57,46,62,55,46,99,96,86,30.23,29.80,0,0,0,0.00
2013-11-18,69,59,46,64,45,30,98,64,34,29.83,29.67,0,0,0,0.18
2013-11-19,53,45,32,32,29,25,80,54,42,30.34,29.83,0,0,0,0.00
2013-11-20,47,37,32,31,27,24,84,68,49,30.54,30.32,0,0,0,0.00
2013-11-21,57,44,32,45,37,27,91,78,59,30.54,30.38,0,0,0,0.00
2013-11-22,58,53,45,55,51,43,98,93,88,30.38,29.94,0,0,0,0.10
2013-11-23,53,46,34,53,33,15,99,61,33,30.06,29.94,0,0,0,0.00
2013-11-24,36,29,23,16,8,2,59,40,29,30.46,30.04,0,0,0,0.03
2013-11-25,39,30,22,28,18,12,78,62,43,30.54,30.36,0,0,0,0.00
2013-11-26,58,44,34,57,38,26,98,81,62,30.37,29.62,0,0,0,0.59
2013-11-27,62,46,33,62,44,24,99,93,68,29.88,29.36,0,0,0,1.26
2013-11-28,42,33,26,29,23,20,91,68,48,30.49,29.88,0,0,0,0.00
2013-11-29,48,34,25,32,26,21,95,73,42,30.70,30.47,0,0,0,0.00
2013-11-30,45,34,24,35,28,18,86,77,63,30.70,30.33,0,0,0,0.00
2013-12-1,37,33,29,33,29,27,93,88,83,30.33,30.22,0,0,0,0.00
2013-12-2,52,38,28,42,35,27,97,90,63,30.01,29.85,3,0,3,0.02
2013-12-3,37,35,33,36,34,32,97,96,96,30.07,30.00,2,0,2,0.00
2013-12-4,54,52,50,53,52,49,99,98,95,30.09,30.05,3,0,3,0.00
2013-12-5,63,58,55,62,58,55,99,98,94,29.99,29.90,16,3,16,0.11
2013-12-6,65,50,41,63,49,40,98,96,92,30.11,29.93,19,4,19,0.48
2013-12-7,47,38,29,41,35,27,98,87,62,30.50,30.03,15,3,15,0.24
2013-12-8,35,31,28,35,28,22,99,89,73,30.57,30.24,14,3,14,0.23
2013-12-9,40,38,35,40,38,35,99,98,95,30.26,30.00,14,3,14,0.99
2013-12-10,36,34,32,36,32,24,98,94,71,30.20,29.89,13,2,13,0.13
2013-12-11,40,31,23,27,24,20,95,76,48,30.39,30.20,15,2,16,0.05
2013-12-12,36,26,21,23,18,12,96,72,45,30.37,30.22,11,2,16,0.00
2013-12-13,42,34,27,26,22,16,92,64,39,30.33,30.19,14,4,20,0.01
2013-12-14,55,40,29,55,36,26,99,89,70,30.37,29.60,20,3,20,0.83
2013-12-15,57,41,34,56,36,24,99,83,64,29.92,29.53,23,5,23,0.13
2013-12-16,38,32,26,29,22,15,79,65,48,30.22,29.91,20,3,20,0.00
2013-12-17,51,37,30,44,31,15,95,80,54,30.20,29.90,14,3,14,0.01
2013-12-18,43,33,25,31,26,20,94,76,44,30.22,29.91,22,3,22,0.02
2013-12-19,51,40,24,37,31,22,97,73,53,30.22,30.07,18,4,18,0.00
2013-12-20,59,51,43,53,42,34,93,73,57,30.13,30.01,24,6,24,0.00
2013-12-21,69,58,50,56,52,46,96,80,60,30.04,29.94,27,6,27,0.00
2013-12-22,71,62,54,65,59,52,98,92,80,30.01,29.90,31,6,31,0.10
2013-12-23,64,56,43,63,55,39,99,95,86,30.14,29.91,19,3,19,0.32
2013-12-24,47,38,28,39,27,14,89,66,44,30.38,30.10,23,4,23,0.01
2013-12-25,40,27,21,20,16,10,90,65,34,30.53,30.37,15,2,15,0.00
2013-12-26,42,30,19,31,24,17,94,81,50,30.40,30.20,14,2,14,0.00
2013-12-27,45,33,23,32,26,20,96,78,40,30.42,30.30,12,2,12,0.00
2013-12-28,54,42,32,36,33,30,94,72,43,30.32,30.11,16,4,16,0.00
2013-12-29,60,47,42,59,42,32,99,84,52,30.11,29.44,28,5,32,0.88
2013-12-30,50,41,32,42,35,25,98,80,60,30.16,29.76,16,3,16,0.00
2013-12-31,43,34,28,32,24,19,82,65,52,30.32,30.09,18,3,18,0.00
2014-1-1,44,32,23,33,25,18,96,77,47,30.42,30.16,13,2,13,0.00
2014-1-2,39,34,28,36,32,27,97,95,89,30.16,29.52,14,3,14,0.00